Tracking 29511 objects as of 17-Sep-2024
HD Live streaming from Space Station
objects crossing your sky now

SATCOM 1

Track SATCOM 1 now!
SATCOM 1 is classified as:


NORAD ID: 8476
Int'l Code: 1975-117A
Perigee: 35,910.9 km
Apogee: 36,056.4 km
Inclination: 9.4 °
Period: 1,445.8 minutes
Semi major axis: 42354 km
RCS: 2.5118 m2 (large)
Launch date: December 13, 1975
Source: United States (US)
Launch site: AIR FORCE EASTERN TEST RANGE (AFETR)
Your satellite tracking list
Your tracking list is empty




NASA's NSSDC Master Catalog

Two Line Element Set (TLE):
1 08476U 75117A   24260.21184446 -.00000032  00000-0  00000-0 0  9996
2 08476   9.3566 309.3256 0017177 252.6064 127.5055  0.99598220 40005
Source of the keplerian elements: AFSPC